This is the latest recevied weather packets stored in our database for station/object DM1HF-13. If no packets are shown the sender has not sent any weather packets the latest 10 day(s).
| Time | Temp. | Humidity | Pressure | Rain* | Wind** | Luminosity | Snow |
|---|---|---|---|---|---|---|---|
| 1777636817 | 22.22° C | 29% | 1030.3 hPa | 0 mm | - | 648 W/m² | - |
| 1777636516 | 22.22° C | 31% | 1030.5 hPa | 0 mm | - | 650 W/m² | - |
| 1777636217 | 21.11° C | 31% | 1030.4 hPa | 0 mm | - | 656 W/m² | - |
| 1777635916 | 21.67° C | 30% | 1030.4 hPa | 0 mm | - | 656 W/m² | - |
| 1777635616 | 22.22° C | 30% | 1030.5 hPa | 0 mm | - | 654 W/m² | - |
| 1777635316 | 21.67° C | 30% | 1030.5 hPa | 0 mm | - | 655 W/m² | - |
| 1777635016 | 21.11° C | 32% | 1030.5 hPa | 0 mm | - | 656 W/m² | - |
| 1777634716 | 21.11° C | 30% | 1030.6 hPa | 0 mm | - | 656 W/m² | - |
| 1777634416 | 21.11° C | 31% | 1030.5 hPa | 0 mm | - | 658 W/m² | - |
| 1777634117 | 21.67° C | 33% | 1030.6 hPa | 0 mm | - | 653 W/m² | - |
| 1777633817 | 21.11° C | 31% | 1030.7 hPa | 0 mm | - | 647 W/m² | - |
| 1777633516 | 21.11° C | 33% | 1030.7 hPa | 0 mm | - | 645 W/m² | - |
| 1777633216 | 21.11° C | 33% | 1030.9 hPa | 0 mm | - | 640 W/m² | - |
| 1777632916 | 21.11° C | 33% | 1030.9 hPa | 0 mm | - | 634 W/m² | - |
| 1777632617 | 21.11° C | 32% | 1030.9 hPa | 0 mm | - | 630 W/m² | - |
| 1777632316 | 20.56° C | 33% | 1031 hPa | 0 mm | - | 623 W/m² | - |
| 1777632016 | 20.56° C | 33% | 1031.1 hPa | 0 mm | - | 621 W/m² | - |
| 1777631716 | 20.56° C | 32% | 1031.1 hPa | 0 mm | - | 617 W/m² | - |
| 1777631417 | 20.56° C | 32% | 1031.1 hPa | 0 mm | - | 609 W/m² | - |
| 1777631116 | 20° C | 33% | 1031.2 hPa | 0 mm | - | 602 W/m² | - |
| 1777630816 | 20.56° C | 32% | 1031.2 hPa | 0 mm | - | 596 W/m² | - |
| 1777630516 | 20° C | 33% | 1031.3 hPa | 0 mm | - | 588 W/m² | - |
| 1777630216 | 20° C | 37% | 1031.2 hPa | 0 mm | - | 582 W/m² | - |
| 1777629916 | 20° C | 33% | 1031.2 hPa | 0 mm | - | 574 W/m² | - |
| 1777629616 | 20° C | 35% | 1031.3 hPa | 0 mm | - | 565 W/m² | - |
* Rain latest hour (hover to see other rain measurements)
** Current wind speed in m/s (hover to see current wind gust speed)